Погода в Павелеце

Погода в Павелеце : погода сейчас, прогноз погоды и архив. Всё, что Вы хотите узнать о погоде в Павелеце!

Поиск расширенной информации на нашем сайте:

Другие новости

Новости СМИ2

Главная страница сайта

Новости сайта

02.10.2013

Напоминаем, что на нашем новом сайте вы можете получить высокодетализированные прогнозы погоды по пунктам России, СНГ и мира (включающие важные для авиации метеовеличины, такие как направление и скорость ветра, видимость, явления погоды, количество и форма облачности, нижняя и верхняя граница облачности), а также ознакомиться с разнообразными материалами по авиационной метеорологии и подборкой полезных ссылок на эту тему.

Сайт Метеоцентр.Азия посвящён разработке технологий оптимизации авиаметеорологического обслуживания, включая проектирование и перспективное создание нескольких автоматизированных авиаметеорологических систем:
- система выпуска высокодетальных прогностических карт явлений погоды для нижнего воздушного пространства по России и ближнему зарубежью;
- система верификации прогнозов TAF (выпускаемых синоптиками официальных АМСГ РФ и ближнего зарубежья) и AUTOTAF (выпускаемых сайтом Метеоцентр.Азия) - выявление ошибок, онлайн-сопоставление с фактической погодой METAR, автоматическое внесение коррективов в прогнозы при резком отклонении фактической погоды от прогноза, подсчёт оправдываемости прогнозов по элементам и в целом;
- система обработки, анализа и отображения авиаметеорологической информации для применения провайдерами метеорологической информации.

Рекомендуем: DONIC level 800 Waldner готовая ракетка

Погода в Павелеце - сегодня

Время (UTC), дата Ветер
(°,м/с) 
Видим.   Явления Облачность Т
(°С)
Тd
(°С)
f(%) Тe
(°С)
Pmin
(гПа)
dP
(гПа)
Po
(мм)
O2
(г/м3)
Тmin Tmax R s Состояние
почвы
18 24.06.17 тихо ()   20000 м    10/0 средняя, верхняя 
[Ac trans|Ci fib]
+11.8 +8.4 80 +12  1007.7  0.6  737  283           
21 24.06.17 тихо ()   20000 м    9/0 средняя, верхняя 
[Ac trans|Ci fib]
+10.1 +7.1 82 +10  1008.5  0.6  738  285           
00 25.06.17 180 (Ю) 20000 м    4/0 верхняя 
[Ci fib]
+7.5 +6.6 94 +8  1009.3  0.6  738  288           
03 25.06.17 180 (Ю) 20000 м    4/0 
+9.5 +8.4 93 +11  1009.2  -0.1  738  286  +7.3        влажная 
06 25.06.17 210 (ЮЗ) 20000 м    5/0 средняя, верхняя 
[Ac trans|Ci fib]
+17.9 +9.1 56 +18  1008.2  -0.3  738  277           
09 25.06.17 230 (ЮЗ) 20000 м    8/6 600 м верхняя 
[Cu hum|Ci fib]
+21.5 +6.7 38 +22  1007.9  738  275           
12 25.06.17 240 (ЮЗ) 4{11}  20000 м    10/6 600 м кучево-дожд., верхняя 
[Cb calv|Ci fib]
+20.7 +9.9 50 +22  1007.8  0.1  738  275           
15 25.06.17 250 (З) 3{11}  20000 м    8/5 600 м средняя 
[Cu hum|Ac trans]
+21.1 +12.4 58 +26  1007.7  0.1  738  274    +22.1       
18 25.06.17 230 (ЮЗ) 20000 м    10/0 средняя, верхняя 
[Ac trans|Ci fib]
+17.6 +12.9 74 +24  1008.7  0.7  738  277           
21 25.06.17 210 (ЮЗ) 20000 м    10/0 средняя 
[Ac und]
+16 +13.3 84 +22  1008.8  0.1  738  278           
00 26.06.17 230 (ЮЗ) 20000 м    10/0 средняя 
[Ac und]
+16.3 +13.6 84 +23  1008.5  -0.2  738  278           
03 26.06.17 240 (ЮЗ) 20000 м    10/0 средняя, верхняя 
[Ac trans|Ci fib]
+16.4 +13.5 83 +23  1008.9  0.4  738  278  +13.6        сухая 
06 26.06.17 240 (ЮЗ) 20000 м    3/0 верхняя 
[Ci fib]
+21.8 +12.4 55 +27  1008.8  0.3  739  273           
09 26.06.17 230 (ЮЗ) 20000 м    8/4 600 м верхняя 
[Cu med, cong|Ci fib]
+24.8 +13.7 50 +32  1008.2  -0.4  738  270           
12 26.06.17 220 (ЮЗ) 7-10{10}  20000 м    9/8 600 м верхняя 
[Cu med, cong|Ci fib]
+25.4 +14.7 52 +34  1007.2  -0.9  738  269           
15 26.06.17 220 (ЮЗ) 3{11}  20000 м    10/8 600 м кучево-дожд., средняя, верхняя 
[Cb cap|Ac cast|Ci fib]
+24.2 +15.7 59 +35  1005.6  -1.7  736  269    +26.6       
18 26.06.17 250 (З) 20000 м  слаб. ливневой дождь, в посл. час гроза  10/8 600 м кучево-дожд., верхняя 
[Cb calv|Ci fib]
+17.1 +15.8 92 +30  1006.7  0.5  737  276           
21 26.06.17 180 (Ю) 20000 м  {гроза}  10/8 600 м кучево-дожд., верхняя 
[Cb calv|Ci fib]
+17 +16 94 +28  1005.2  -1.4  736  276           
00 27.06.17 240 (ЮЗ) 20000 м  слаб. ливневой дождь  10/8 600 м кучево-дожд., верхняя 
[Cb calv|Ci fib]
+17.8 +16.7 93 +30  1005.3  0.2  736  275           
03 27.06.17 310 (СЗ) 20000 м    8/8 600 м средняя 
[Ac trans]
+17.6 +16 90 +30  1006.6  0.2  737  275  +16.9      влажная 
06 27.06.17 тихо ()   20000 м    10/0 средняя, верхняя 
[Ac As|Ci sp]
+19.1 +14.2 73 +27  1007.6  1.1  738  275           
09 27.06.17 280 (З) 20000 м    10/3 600 м средняя, верхняя 
[Cu med, cong|Ac As|Ci fib]
+21.3 +10.5 50 +23  1008.4  738  274           
12 27.06.17 260 (З) 20000 м  {ливн. осадки}  8/4 600 м средняя, верхняя 
[Cu med, cong|Ac trans|Ci fib]
+21.4 +15.1 67 +31  1008.5  0.1  738  273           
15 27.06.17 320 (СЗ) 20000 м    8/6 600 м верхняя 
[Cu hum|Ci fib]
+22.4 +11.3 49 +26  1008.3  738  273    +22.9     
18 27.06.17 тихо ()   20000 м    4/3 600 м верхняя 
[Cu med, cong|Ci fib]
+14.2 +10.3 77 +16  1010.5  1.4  739  281           
Время (UTC), дата Ветер
(°,м/с) 
Видим.   Явления Облачность Т
(°С)
Тd
(°С)
f(%) Тe
(°С)
Pmin
(гПа)
dP
(гПа)
Po
(мм)
O2
(г/м3)
Тmin Tmax R s Состояние
почвы

Для получения пояснительной информации подведите курсор к названию столбца.

ПОГОДА в Павелеце - архив

Всё, что Вы хотите узнать о погоде в Павелеце - удобно и подробно!

Выберите нужную дату (начиная с 1 января 2015* года) и нажмите кнопку "Найти".
Будут отображены архивные сводки погоды по пункту Павелец, начиная с указанной даты.


Отображать данные в формате CSV (для использования в таблицах Excel)


Внимание! Наш архив погоды предназначен исключительно для личного некоммерческого использования в познавательных целях. Если Вам необходимы официальные справки о состоянии погоды (для производственных, юридических, коммерческих и т.п. целей), обращайтесь в органы Росгидромета.

*Примечание: данная дата относится к архиву по метеостанциям СССР (Россия, СНГ, Балтия).
Архив по метеостанциям Зарубежной Европы и Азии (кроме Китая) хранится 10 дней, по другим регионам земного шара (Китай, Африка, Америка, Австралия, Океания) - 1 день.

Павелец - район местоположения метеостанции


Название, широта, долгота, высота метеостанции:
Павелец 53.8°ш. 39.2°д. 209 м над ур. моря [Российская Федерация]

Дополнительная информация

В oтличие oт бoльшинства пoгoдных сайтoв мы публикуем пoдрoбную метеoинфoрмацию в детальнoм прoфессиoнальнoм фoрмате.

Характеристики температуры и влажнoсти вoздуха измеряются на высoте 2 м в тени вдали oт зданий и деревьев.
Скoрoсть ветра измеряется на высoте 10 м (на урoвне рoста челoвека скoрoсть ветра ниже в 1.5-2 раза). Если метеoстанция нахoдится в гoрoде или в лесу, тo скoрoсть ветра занижена на 2-4 м/с пo сравнению с oткрытым местoм. Скoрoсть ветра над акватoриями крупных рек и oзёр, а также на вершинах хoлмoв на 2-5 м/с выше, чем в oбычных услoвиях.
Атмoсфернoе давление в разных тoчках местнoсти мoжет значительнo oтличаться oт давления на метеoстанции, в зависимoсти oт услoвий рельефа (при пoдъёме на 10 м давление пoнижается примернo на 1 мм рт.ст.).